• In Czech Republic
  • List of Countries
  • For 7 days
  • Water Temperature
  • Satellite Maps
  • Weather Map
  • Weather Widgets
  • user-avatar
    Login

    Hourly Weather Chakhansur

    Today, 21 November, Tuesday

    Time Temperature Precipitation Wind Pressure Humidity
    00:00 +12°C° 0 mm 0 mps 722 mmHg 20%
    01:00 +12°C° 0 mm 0 mps 722 mmHg 21%
    02:00 +11°C° 0 mm 0 mps 722 mmHg 21%
    03:00 +11°C° 0 mm 0 mps 721 mmHg 22%
    04:00 +10°C° 0 mm 0 mps 721 mmHg 24%
    05:00 +12°C° 0 mm 1 mps 722 mmHg 23%
    06:00 +12°C° 0 mm 1 mps 722 mmHg 23%
    07:00 +12°C° 0 mm 1 mps 722 mmHg 23%
    08:00 +14°C° 0 mm 1 mps 722 mmHg 20%
    09:00 +16°C° 0 mm 1 mps 723 mmHg 17%
    10:00 +20°C° 0 mm 1 mps 723 mmHg 14%
    11:00 +21°C° 0 mm 1 mps 722 mmHg 13%
    12:00 +22°C° 0 mm 1 mps 722 mmHg 11%
    13:00 +20°C° 0 mm 0 mps 721 mmHg 10%
    14:00 +20°C° 0 mm 0 mps 721 mmHg 10%
    15:00 +20°C° 0 mm 0 mps 721 mmHg 10%
    16:00 +20°C° 0 mm 0 mps 720 mmHg 10%
    17:00 +21°C° 0 mm 1 mps 720 mmHg 11%
    18:00 +20°C° 0 mm 1 mps 720 mmHg 12%
    19:00 +18°C° 0 mm 1 mps 720 mmHg 13%
    20:00 +17°C° 0 mm 2 mps 720 mmHg 14%
    21:00 +17°C° 0 mm 2 mps 720 mmHg 14%
    22:00 +17°C° 0 mm 2 mps 720 mmHg 14%
    23:00 +16°C° 0 mm 3 mps 720 mmHg 14%

    Tomorrow, 22 November, Wednesday

    Time Temperature Precipitation Wind Pressure Humidity
    00:00 +16°C° 0 mm 3 mps 720 mmHg 15%
    01:00 +16°C° 0 mm 3 mps 719 mmHg 15%
    02:00 +14°C° 0 mm 3 mps 719 mmHg 15%
    03:00 +14°C° 0 mm 3 mps 719 mmHg 16%
    04:00 +14°C° 0 mm 3 mps 719 mmHg 16%
    05:00 +14°C° 0 mm 3 mps 719 mmHg 17%
    06:00 +14°C° 0 mm 4 mps 719 mmHg 17%
    07:00 +14°C° 0 mm 4 mps 719 mmHg 17%
    08:00 +17°C° 0 mm 4 mps 720 mmHg 15%
    09:00 +19°C° 0 mm 4 mps 720 mmHg 13%
    10:00 +21°C° 0 mm 4 mps 720 mmHg 11%
    11:00 +22°C° 0 mm 4 mps 720 mmHg 10%
    12:00 +23°C° 0 mm 4 mps 719 mmHg 9%
    13:00 +25°C° 0 mm 4 mps 719 mmHg 8%
    14:00 +25°C° 0 mm 4 mps 718 mmHg 8%
    15:00 +25°C° 0 mm 3 mps 718 mmHg 8%
    16:00 +25°C° 0 mm 3 mps 718 mmHg 8%
    17:00 +22°C° 0 mm 3 mps 718 mmHg 8%
    18:00 +21°C° 0 mm 3 mps 718 mmHg 9%
    19:00 +20°C° 0 mm 3 mps 718 mmHg 10%
    20:00 +19°C° 0 mm 4 mps 718 mmHg 10%
    21:00 +19°C° 0 mm 4 mps 718 mmHg 11%
    22:00 +18°C° 0 mm 4 mps 718 mmHg 11%
    23:00 +18°C° 0 mm 4 mps 718 mmHg 11%

    Day after tomorrow, 23 November, Thursday

    Time Temperature Precipitation Wind Pressure Humidity
    00:00 +18°C° 0 mm 4 mps 717 mmHg 11%
    01:00 +18°C° 0 mm 3 mps 717 mmHg 11%
    02:00 +17°C° 0 mm 3 mps 717 mmHg 11%
    03:00 +17°C° 0 mm 3 mps 717 mmHg 12%
    04:00 +16°C° 0 mm 3 mps 716 mmHg 12%
    05:00 +16°C° 0 mm 3 mps 717 mmHg 12%
    06:00 +16°C° 0 mm 3 mps 717 mmHg 13%
    07:00 +16°C° 0 mm 3 mps 717 mmHg 13%
    08:00 +18°C° 0 mm 3 mps 718 mmHg 12%
    09:00 +20°C° 0 mm 3 mps 718 mmHg 11%
    10:00 +22°C° 0 mm 3 mps 718 mmHg 10%
    11:00 +24°C° 0 mm 2 mps 718 mmHg 10%
    12:00 +25°C° 0 mm 2 mps 717 mmHg 10%
    13:00 +26°C° 0 mm 2 mps 717 mmHg 11%
    14:00 +26°C° 0 mm 2 mps 717 mmHg 11%
    15:00 +26°C° 0 mm 1 mps 717 mmHg 12%
    16:00 +26°C° 0 mm 1 mps 716 mmHg 13%
    17:00 +24°C° 0 mm 1 mps 717 mmHg 14%
    18:00 +23°C° 0 mm 1 mps 717 mmHg 16%
    19:00 +21°C° 0 mm 1 mps 717 mmHg 17%
    20:00 +21°C° 0 mm 1 mps 717 mmHg 17%
    21:00 +21°C° 0 mm 1 mps 717 mmHg 18%
    22:00 +20°C° 0 mm 2 mps 717 mmHg 18%
    23:00 +19°C° 0 mm 2 mps 717 mmHg 18%

    24 November, Friday

    Time Temperature Precipitation Wind Pressure Humidity
    00:00 +19°C° 0 mm 2 mps 717 mmHg 18%
    01:00 +19°C° 0 mm 3 mps 717 mmHg 18%
    02:00 +18°C° 0 mm 3 mps 716 mmHg 19%
    03:00 +18°C° 0 mm 3 mps 716 mmHg 19%
    04:00 +18°C° 0 mm 3 mps 716 mmHg 19%
    05:00 +18°C° 0 mm 3 mps 717 mmHg 20%
    06:00 +18°C° 0 mm 3 mps 717 mmHg 21%
    07:00 +18°C° 0 mm 3 mps 718 mmHg 22%
    08:00 +19°C° 0 mm 3 mps 718 mmHg 22%
    09:00 +21°C° 0 mm 3 mps 719 mmHg 22%
    10:00 +22°C° 0 mm 3 mps 719 mmHg 21%
    11:00 +24°C° 0 mm 3 mps 719 mmHg 22%
    12:00 +25°C° 0 mm 2 mps 718 mmHg 22%
    13:00 +25°C° 0 mm 2 mps 718 mmHg 22%
    14:00 +25°C° 0 mm 2 mps 718 mmHg 23%
    15:00 +25°C° 0 mm 1 mps 718 mmHg 23%
    16:00 +25°C° 0 mm 1 mps 717 mmHg 24%
    17:00 +24°C° 0 mm 1 mps 718 mmHg 26%
    18:00 +23°C° 0 mm 1 mps 718 mmHg 29%
    19:00 +20°C° 0 mm 2 mps 718 mmHg 31%
    20:00 +20°C° 0 mm 2 mps 718 mmHg 33%
    21:00 +20°C° 0 mm 2 mps 718 mmHg 35%
    22:00 +20°C° 0 mm 2 mps 718 mmHg 36%
    23:00 +19°C° 0 mm 2 mps 718 mmHg 37%

    25 November, Saturday

    Time Temperature Precipitation Wind Pressure Humidity
    00:00 +19°C° 0 mm 2 mps 718 mmHg 38%
    01:00 +18°C° 0 mm 2 mps 717 mmHg 39%
    02:00 +18°C° 0 mm 2 mps 717 mmHg 39%
    03:00 +18°C° 0 mm 2 mps 717 mmHg 39%
    04:00 +17°C° 0 mm 2 mps 717 mmHg 40%
    05:00 +17°C° 0 mm 2 mps 718 mmHg 40%
    06:00 +17°C° 0 mm 2 mps 718 mmHg 40%
    07:00 +18°C° 0 mm 1 mps 718 mmHg 39%
    08:00 +19°C° 0 mm 2 mps 719 mmHg 35%
    09:00 +21°C° 0 mm 2 mps 720 mmHg 32%
    10:00 +24°C° 0 mm 2 mps 720 mmHg 28%
    11:00 +25°C° 0 mm 3 mps 720 mmHg 26%
    12:00 +26°C° 0 mm 4 mps 720 mmHg 25%
    13:00 +27°C° 0 mm 5 mps 719 mmHg 24%
    14:00 +26°C° 0 mm 4 mps 719 mmHg 23%
    15:00 +26°C° 0 mm 4 mps 719 mmHg 22%
    16:00 +26°C° 0 mm 4 mps 719 mmHg 22%
    17:00 +25°C° 0 mm 3 mps 720 mmHg 22%
    18:00 +22°C° 0 mm 3 mps 720 mmHg 23%
    19:00 +21°C° 0 mm 2 mps 720 mmHg 23%
    20:00 +20°C° 0 mm 2 mps 721 mmHg 24%
    21:00 +20°C° 0 mm 2 mps 721 mmHg 24%
    22:00 +19°C° 0 mm 2 mps 721 mmHg 25%
    23:00 +18°C° 0 mm 3 mps 721 mmHg 26%

    26 November, Sunday

    Time Temperature Precipitation Wind Pressure Humidity
    00:00 +18°C° 0 mm 3 mps 721 mmHg 27%
    01:00 +17°C° 0 mm 4 mps 721 mmHg 28%
    02:00 +17°C° 0 mm 4 mps 721 mmHg 27%
    03:00 +16°C° 0 mm 3 mps 721 mmHg 26%
    04:00 +16°C° 0 mm 3 mps 721 mmHg 26%
    05:00 +14°C° 0 mm 3 mps 721 mmHg 25%
    06:00 +14°C° 0 mm 3 mps 722 mmHg 25%
    07:00 +14°C° 0 mm 3 mps 722 mmHg 24%
    08:00 +17°C° 0 mm 3 mps 722 mmHg 22%
    09:00 +18°C° 0 mm 3 mps 723 mmHg 19%
    10:00 +20°C° 0 mm 3 mps 723 mmHg 17%
    11:00 +21°C° 0 mm 4 mps 723 mmHg 15%
    12:00 +22°C° 0 mm 4 mps 723 mmHg 14%
    13:00 +23°C° 0 mm 4 mps 722 mmHg 13%
    14:00 +23°C° 0 mm 4 mps 722 mmHg 13%
    15:00 +23°C° 0 mm 4 mps 722 mmHg 12%
    16:00 +23°C° 0 mm 4 mps 722 mmHg 12%
    17:00 +22°C° 0 mm 4 mps 722 mmHg 13%
    18:00 +21°C° 0 mm 4 mps 723 mmHg 14%
    19:00 +19°C° 0 mm 4 mps 723 mmHg 15%
    20:00 +19°C° 0 mm 5 mps 723 mmHg 17%
    21:00 +17°C° 0 mm 5 mps 723 mmHg 18%
    22:00 +16°C° 0 mm 5 mps 723 mmHg 20%
    23:00 +15°C° 0 mm 5 mps 723 mmHg 21%
    Show more